Temp
13 13 13 13 14 14 15 15 15 16 15 15 15 16 16 16 17 18 18 22 24 24 24 24 24 24 23 22 23 22 20 19 20 24 25 28 27 30 30 29 27 26 21 21 23
11 11 13 13 13 13 14 14 15 15 15 15 15 15 15 16 16 17 23 23 22 23 23 24 24 24 21 22 22 21 18 21 23 25 26 27 26 28 30 28 27 26 24 23 24
9 10 10 12 13 13 13 13 14 14 15 15 15 14 14 15 16 20 23 24 24 23 23 24 24 24 23 22 22 22 23 24 25 25 25 26 26 27 29 29 27 26 23 23 23
9 9 9 10 10 11 13 12 13 13 14 14 14 14 14 15 18 22 21 22 22 23 23 24 23 23 23 23 23 23 24 24 25 26 25 26 28 27 27 29 27 25 24 23 23
9 8 9 9 10 10 10 12 12 12 13 13 13 13 13 13 16 22 20 21 22 23 23 23 23 23 23 23 24 23 24 24 25 24 24 26 26 27 26 26 27 26 25 24 24
9 8 8 8 8 9 9 10 11 13 12 12 13 12 12 13 17 19 20 20 22 22 23 23 23 24 22 23 23 24 24 23 23 24 25 26 26 26 27 27 28 26 24 24 24
8 8 8 8 8 8 8 10 10 11 12 12 12 11 12 13 17 18 19 18 19 19 21 23 23 23 22 22 24 24 23 22 24 24 25 25 24 25 26 26 27 27 25 25 24
8 8 8 8 8 8 8 9 10 10 11 12 11 11 13 15 16 16 19 19 20 21 21 22 23 22 22 23 22 22 22 21 24 24 24 25 23 25 26 25 25 26 26 23 22
8 8 8 8 8 8 8 8 9 10 11 11 11 12 12 15 14 16 17 17 20 21 21 22 22 21 22 21 20 21 20 20 21 23 23 23 23 25 25 25 25 25 24 22 20
7 7 8 8 8 8 8 9 8 9 11 11 11 12 13 14 16 17 18 18 19 20 20 20 19 18 17 18 19 21 19 21 21 25 23 22 21 25 25 24 25 24 22 21 20
7 7 7 8 8 8 8 9 10 11 11 13 13 16 18 16 17 17 18 18 18 19 19 19 17 17 19 21 22 23 21 21 22 24 24 22 22 23 25 22 23 22 21 20 20
6 7 7 7 7 8 7 7 9 7 9 13 14 14 18 18 16 17 19 18 17 17 19 19 18 20 20 21 21 21 21 20 22 23 23 22 22 22 22 24 23 22 21 19 18
6 6 6 7 7 7 7 7 10 8 8 13 13 14 14 16 15 17 18 18 17 17 17 17 20 21 20 20 20 20 20 20 21 23 23 21 22 23 24 24 24 23 21 20 19
6 6 6 6 6 6 6 8 8 8 9 11 13 14 14 16 16 17 19 19 18 17 17 17 19 20 20 20 21 20 22 22 22 22 20 22 21 22 23 23 24 24 19 20 18
6 6 6 6 7 6 7 7 8 8 8 13 14 15 15 15 18 16 18 19 17 18 18 18 18 18 20 20 21 21 23 23 22 22 21 22 20 22 24 23 24 23 20 19 18
6 6 6 5 6 7 7 8 6 8 9 12 13 13 13 14 16 18 16 19 19 18 19 18 20 20 20 22 21 22 22 22 21 21 19 22 22 23 23 23 23 24 23 19 18
5 6 6 5 6 6 7 6 5 4 12 13 13 14 14 14 14 15 16 16 16 16 15 18 18 20 21 19 21 21 20 17 17 18 19 23 21 24 24 25 25 23 21 19 18
5 5 6 6 5 6 6 5 4 8 10 15 15 15 14 15 14 14 15 15 17 17 16 16 16 19 20 20 20 20 21 18 18 19 20 22 21 22 24 25 24 25 21 18 17
5 5 5 5 5 5 5 5 6 7 12 13 15 14 14 15 15 14 14 16 17 17 16 16 17 21 21 21 21 20 20 22 18 18 17 19 19 22 23 22 23 22 18 18 17
5 5 5 5 5 4 4 5 7 8 11 13 11 14 14 15 15 14 14 16 16 18 18 18 17 20 21 22 22 21 22 19 19 18 18 18 18 20 20 23 21 20 18 17 17
5 6 6 5 5 4 5 4 6 9 10 10 10 12 15 16 16 15 16 17 16 17 18 18 17 17 20 20 19 20 20 20 21 16 18 18 19 19 21 20 19 17 17 17 16
5 5 6 5 5 5 5 6 8 8 9 9 10 10 9 12 16 16 16 17 18 18 16 18 17 16 18 20 22 21 21 21 18 17 16 17 19 20 20 18 17 17 17 16 16
5 5 6 5 6 6 6 6 7 7 9 8 8 10 11 9 12 16 16 18 17 17 17 17 16 15 16 19 19 17 21 21 20 16 19 17 19 20 19 17 17 16 16 16 15
5 6 5 5 6 7 6 6 5 7 8 9 10 9 10 9 9 11 16 18 18 18 18 18 17 16 17 19 19 17 19 21 20 18 18 18 19 18 17 17 16 15 15 15 15
5 5 6 6 5 6 7 7 6 5 7 8 8 8 9 9 9 9 10 13 17 18 17 17 17 16 17 19 20 20 19 19 19 20 17 19 18 18 18 17 16 16 16 16 16
5 5 5 7 7 6 6 6 6 6 7 6 7 8 8 8 8 9 9 8 12 18 17 17 16 15 15 17 19 18 20 18 19 20 19 19 18 19 18 17 17 16 16 16 16
6 6 6 7 6 6 7 7 7 7 7 9 7 7 8 9 10 10 9 8 8 9 13 16 16 15 15 17 17 16 18 19 18 19 19 18 20 20 20 18 17 15 16 16 16
Height
784 784 785 787 788 786 788 789 789 789 792 791 789 790 788 785 781 778 773 768 768 767 768 768 767 766 769 770 770 772 799 805 793 779 770 745 755 737 733 740 739 741 747 739 741
781 780 780 781 782 783 784 784 785 786 788 788 787 787 787 783 779 772 764 760 761 765 766 765 765 766 772 771 770 780 800 786 769 763 761 752 755 750 741 745 745 742 741 739 744
778 779 777 777 777 778 780 779 781 783 783 784 784 785 786 783 780 763 760 757 754 763 764 763 763 765 771 768 771 771 778 766 758 756 752 752 751 744 746 750 744 743 744 746 749
776 775 774 774 774 774 775 775 777 778 780 782 781 781 784 785 787 759 759 759 761 762 763 762 762 767 771 773 763 773 761 760 751 747 749 751 741 744 744 742 740 735 735 745 752
773 773 771 771 771 770 770 771 773 774 776 777 779 779 782 783 767 757 757 761 762 762 762 760 763 763 771 765 761 764 758 750 746 746 745 740 743 741 739 733 731 733 738 741 746
770 770 771 768 767 766 767 768 767 769 772 774 776 778 781 773 759 758 759 760 759 761 759 757 758 758 764 762 765 755 753 751 745 743 742 743 739 736 732 726 728 734 739 736 740
767 767 768 766 764 763 764 762 763 764 767 770 771 774 773 748 753 754 754 758 758 759 760 756 756 759 758 762 751 753 761 755 739 741 741 737 746 741 728 727 727 727 733 732 735
763 762 763 763 763 762 759 758 757 759 759 763 767 772 757 749 749 750 751 753 755 755 757 755 753 753 756 753 756 763 763 772 742 740 733 739 759 732 723 728 728 725 725 732 734
758 758 759 759 760 758 757 755 752 754 753 755 761 766 753 746 745 745 748 750 750 751 751 752 751 754 754 766 776 770 778 772 758 737 741 742 750 725 720 724 726 723 724 732 735
753 754 754 755 756 755 755 752 750 751 749 752 751 762 750 745 736 734 737 746 747 749 750 751 756 762 766 772 777 768 775 763 763 733 740 745 749 723 719 722 720 719 723 727 730
747 751 749 751 753 753 754 751 752 746 740 731 728 717 720 729 733 732 734 740 747 748 754 752 764 759 755 745 743 746 759 761 750 731 742 746 741 728 713 719 719 716 717 724 724
743 746 745 746 749 750 752 753 749 759 743 727 721 724 723 725 732 730 731 737 743 746 747 754 735 740 743 746 747 748 756 761 747 732 738 737 736 725 713 708 707 710 716 719 722
737 739 741 743 746 746 749 751 749 751 748 717 717 717 722 728 725 726 727 727 733 743 740 742 726 734 740 743 748 747 751 755 755 736 728 737 734 724 706 703 697 701 707 710 712
732 734 736 741 746 742 744 748 750 749 747 718 712 702 714 720 710 718 716 722 727 730 739 735 729 729 734 732 736 743 735 740 743 750 755 724 740 723 713 708 700 696 708 712 717
725 727 730 735 736 737 742 743 748 746 753 696 693 696 698 702 690 700 704 711 716 720 724 705 714 724 719 712 722 722 725 730 736 742 745 727 745 718 703 707 701 695 701 704 707
721 722 724 727 731 734 736 744 744 737 721 689 683 683 694 692 691 688 700 703 707 714 707 702 698 702 695 705 708 717 726 728 733 740 743 726 730 702 702 699 695 687 688 698 705
713 714 717 719 718 729 735 744 752 748 686 679 672 670 675 682 691 694 698 705 706 720 710 703 697 696 692 707 708 715 732 758 759 751 720 709 721 685 679 672 675 682 685 693 699
702 704 704 708 714 722 731 744 736 704 693 661 661 662 665 670 679 688 694 693 690 686 691 705 702 684 680 692 702 707 714 734 738 732 722 706 694 684 666 665 666 665 674 686 697
693 692 693 699 707 712 724 720 709 703 677 670 658 660 659 659 660 672 677 670 668 674 683 687 685 659 664 675 685 693 708 681 718 718 732 703 686 673 665 668 665 670 679 684 693
682 681 679 690 699 703 711 703 694 690 679 668 670 653 650 647 650 655 664 655 660 657 663 664 681 655 657 667 671 674 675 708 706 716 718 698 697 685 672 664 664 669 677 683 689
675 670 665 681 691 693 688 693 683 672 671 669 669 660 644 633 636 638 636 633 642 651 660 664 673 664 650 654 665 674 679 679 680 703 701 703 678 661 663 665 668 668 671 677 684
666 661 661 670 676 674 675 655 667 664 670 669 664 666 670 645 626 628 626 623 617 632 652 643 662 668 656 643 642 650 656 663 683 689 692 699 658 654 652 658 663 669 670 681 681
656 654 654 659 656 651 649 655 656 660 653 662 665 662 658 659 644 619 613 612 614 628 629 641 653 666 666 654 649 656 646 649 657 675 670 693 642 648 650 659 660 667 674 681 688
647 641 643 637 626 634 639 636 647 646 650 648 647 655 654 654 651 635 612 606 603 610 611 617 630 637 631 612 624 650 640 635 649 674 655 654 656 656 656 661 665 670 671 678 684
626 614 613 616 613 612 619 627 636 645 639 645 653 652 645 649 645 648 644 624 605 599 610 617 619 625 616 616 615 616 625 632 639 621 657 620 651 652 649 654 655 657 667 677 682
606 601 599 590 598 609 608 608 613 620 631 640 641 634 636 643 646 639 636 646 622 593 600 603 608 619 619 611 612 619 612 624 621 620 629 638 638 633 640 644 650 653 659 666 670
578 571 573 565 581 590 576 582 593 617 620 615 625 631 640 629 628 637 639 650 645 634 611 595 598 605 606 601 605 616 613 603 605 612 605 631 593 622 628 635 641 648 650 658 664
Wind_Speed
14 19 21 22 22 20 21 21 20 18 20 18 17 19 19 22 26 25 11 18 12 12 11 6 6 8 2 3 4 4 1 6 6 2 5 18 9 2 2 5 6 8 14 10 23
12 8 15 19 21 22 21 21 21 19 19 18 18 18 18 20 24 18 29 25 26 17 13 10 5 1 1 4 2 4 4 8 6 5 10 11 3 8 1 4 4 5 2 19 28
17 14 10 9 17 21 21 20 20 21 19 18 16 16 15 14 6 7 7 12 11 12 15 5 6 3 3 5 5 5 10 10 16 12 10 6 9 2 3 2 7 9 8 18 23
21 22 20 14 11 11 20 20 20 19 19 19 16 14 11 4 6 0 10 12 0 11 10 5 3 3 4 5 5 4 9 11 17 13 9 6 4 8 6 4 2 10 20 22 16
18 20 21 21 20 14 12 17 20 18 18 18 16 14 6 4 10 18 20 19 14 8 10 5 3 1 3 4 4 5 7 10 9 9 8 7 6 6 6 7 1 8 16 21 19
16 14 16 16 17 19 17 15 15 20 16 16 15 12 5 18 11 26 22 17 17 14 10 5 4 1 6 7 5 4 5 10 8 9 4 6 5 4 8 6 6 13 14 19 21
15 15 15 15 15 16 18 19 15 17 19 15 14 12 9 22 9 14 11 13 11 13 7 15 7 2 4 7 6 2 7 8 14 3 6 2 6 7 7 8 8 9 12 18 13
17 16 15 15 15 16 17 18 18 17 19 16 14 11 12 5 9 28 33 29 25 19 18 15 6 4 6 4 8 5 3 3 0 5 7 8 10 13 9 7 12 10 7 9 7
20 17 16 15 15 15 16 16 17 18 18 19 15 8 9 7 13 29 23 15 17 15 15 11 3 4 2 4 3 1 9 6 9 6 6 5 5 15 11 8 12 10 6 13 8
21 20 18 16 14 13 14 16 17 13 12 21 8 6 6 6 12 15 26 22 11 5 6 5 3 4 2 4 11 13 7 4 7 8 5 12 9 19 15 9 15 12 9 14 11
20 21 18 17 15 13 11 11 3 5 10 10 12 10 6 20 3 11 9 19 7 5 13 5 6 13 19 19 14 16 5 8 4 13 1 9 11 16 18 8 11 10 13 12 13
23 21 20 17 16 14 8 2 2 8 9 22 14 23 23 6 4 4 7 12 13 21 14 9 27 15 14 14 14 15 16 12 15 22 6 15 15 11 11 11 11 10 10 13 9
24 23 21 19 17 14 12 9 17 12 6 5 24 20 7 17 12 14 5 12 8 15 18 24 14 16 16 18 17 19 20 16 16 20 18 7 15 7 8 5 7 7 12 17 21
26 25 21 18 12 13 6 10 11 4 4 7 7 11 18 9 16 18 16 11 12 19 16 19 21 18 22 24 20 23 18 19 19 13 11 6 10 9 6 10 7 9 14 14 9
22 25 25 21 5 10 9 14 6 8 5 10 11 10 13 23 7 26 36 14 21 13 14 14 18 30 29 29 25 16 13 17 17 17 16 24 9 6 12 14 11 11 11 18 19
25 23 24 25 27 18 6 5 7 5 11 9 10 16 12 29 21 1 23 21 10 17 21 26 8 24 35 26 24 14 7 14 18 16 20 13 15 19 16 9 8 12 9 18 17
26 25 25 27 15 24 23 5 1 5 0 9 10 15 22 22 27 23 14 28 18 19 27 18 27 22 9 21 22 19 13 6 6 8 18 12 11 19 7 19 18 11 8 19 19
28 26 30 33 29 21 20 5 10 10 15 3 8 18 22 21 19 26 18 22 37 27 4 21 16 35 17 22 14 20 20 7 12 14 12 11 15 7 14 16 8 14 9 18 19
27 29 30 28 30 32 10 13 9 7 17 11 10 14 20 20 15 24 29 28 29 35 20 13 22 4 30 18 20 19 22 23 3 4 1 8 5 3 8 9 12 8 11 18 18
20 17 26 27 35 25 12 22 12 11 15 13 27 11 17 21 21 26 23 24 26 35 28 10 5 10 17 25 25 17 9 13 14 14 18 7 7 6 5 16 10 7 14 18 18
12 5 10 30 36 9 14 12 21 20 19 16 10 15 19 19 25 18 20 17 39 25 31 27 12 5 17 24 31 16 19 8 12 8 15 13 13 8 12 8 9 9 17 21 19
4 8 19 38 10 6 16 35 23 20 22 15 7 11 10 28 20 30 27 27 26 27 31 36 14 16 15 6 21 33 27 22 9 18 10 7 25 3 6 8 11 13 16 14 18
5 7 23 29 12 15 20 26 17 21 22 24 19 18 17 11 19 24 24 25 11 32 21 21 13 9 15 17 11 8 26 30 10 5 25 11 23 9 6 8 13 17 14 14 15
4 5 8 9 13 24 20 25 33 22 21 23 18 25 20 17 12 8 22 21 29 22 37 25 20 25 19 31 15 15 18 23 27 14 19 27 4 4 7 12 11 11 16 18 19
8 10 8 14 16 27 27 21 25 21 28 15 18 21 22 18 24 12 18 18 22 29 27 17 24 25 34 17 14 21 28 23 23 36 20 30 23 12 12 15 20 21 19 19 19
8 9 6 17 22 24 26 28 34 32 15 26 22 28 30 26 19 3 2 6 11 24 16 25 12 24 30 34 27 9 23 25 29 29 22 13 17 11 6 11 15 20 23 23 22
16 17 11 19 23 22 29 33 34 25 26 21 35 27 20 29 22 22 24 20 16 14 11 20 21 18 29 31 24 25 22 31 29 24 31 24 33 16 17 18 20 20 23 24 22
Wind_Direction
271 266 271 271 271 268 268 268 269 271 280 286 294 301 311 317 317 316 274 261 268 288 249 249 236 246 192 255 193 111 247 267 246 276 267 317 347 346 301 92 159 185 156 211 198
324 308 264 264 271 271 269 267 268 267 271 280 288 297 311 323 324 288 295 288 268 249 228 217 246 124 165 259 208 136 180 242 214 261 279 294 315 310 154 107 17 109 35 162 174
298 306 327 277 263 264 269 269 267 268 266 268 278 290 307 332 317 253 328 353 234 230 222 253 254 128 239 196 230 218 244 265 275 267 271 270 307 348 359 312 186 172 137 162 174
304 300 296 302 316 275 261 267 266 266 266 266 270 277 298 331 248 274 35 357 207 220 241 246 233 170 202 240 225 217 253 247 266 264 263 233 236 303 153 239 64 184 160 169 190
308 305 303 296 290 304 305 263 258 266 263 261 261 266 279 220 234 229 281 309 313 264 236 219 248 227 232 251 314 208 264 266 277 285 266 251 219 233 271 241 264 165 162 171 188
300 297 304 311 309 293 292 300 264 251 260 258 252 253 212 249 252 261 276 296 267 273 258 233 231 242 263 247 207 277 251 278 270 265 265 273 272 132 257 278 287 138 185 180 191
292 290 297 301 311 318 295 281 292 256 242 245 237 234 243 242 233 241 245 282 283 293 296 282 293 168 333 318 279 281 323 317 283 256 256 49 299 256 250 272 260 262 175 201 204
288 287 288 295 302 302 313 306 274 282 232 228 218 212 250 252 262 263 263 268 267 258 264 274 299 241 180 269 340 6 304 294 325 335 263 139 264 267 264 239 253 246 234 139 153
282 283 283 284 298 302 299 301 283 273 252 222 173 183 262 277 239 238 244 237 249 267 257 260 289 218 223 163 358 230 253 237 313 207 263 164 253 265 253 233 252 245 218 146 154
279 280 278 277 284 301 305 308 295 260 249 202 173 111 252 263 212 236 232 230 231 266 283 203 204 205 162 154 215 226 221 224 227 275 214 267 249 265 262 223 238 231 182 161 158
272 275 274 270 273 286 301 324 211 208 208 211 188 209 113 237 337 232 196 193 228 199 218 198 200 210 212 214 221 234 217 230 273 264 250 261 259 258 259 212 227 249 185 162 156
270 271 273 271 268 275 267 250 351 35 299 228 219 221 225 108 19 270 188 180 189 214 203 224 230 208 218 224 225 231 244 252 279 278 257 268 262 265 283 231 202 200 161 159 143
261 260 263 270 268 263 237 231 285 7 275 252 221 219 199 232 230 241 185 198 202 212 207 220 227 217 215 224 225 230 231 244 242 278 280 260 267 259 280 259 200 204 164 169 163
264 256 253 256 265 236 215 261 279 285 294 238 210 237 209 225 241 210 207 191 217 208 208 244 229 225 217 223 211 233 218 235 253 254 260 172 273 250 254 259 227 221 155 172 158
280 263 247 228 202 155 129 141 8 186 216 192 194 173 186 196 106 194 211 198 216 193 183 212 180 207 225 217 208 236 212 225 248 260 269 259 278 251 216 233 245 229 168 176 171
280 271 255 233 226 211 206 33 76 213 218 209 174 181 177 204 217 68 198 215 202 212 235 228 216 202 224 222 213 211 231 226 238 248 256 237 239 243 229 217 224 228 194 173 172
279 271 255 230 219 214 224 39 220 217 294 200 201 183 192 199 211 227 192 200 204 208 231 220 231 242 229 215 221 201 203 231 233 222 247 189 224 235 225 217 211 211 190 175 174
273 267 252 237 212 190 174 191 215 215 238 213 191 195 199 194 206 210 216 206 207 208 255 212 231 221 209 222 199 202 191 199 208 224 255 236 242 230 224 231 226 230 194 165 166
269 258 241 231 206 179 178 209 214 224 214 250 263 211 202 201 185 197 206 215 210 204 207 192 231 217 202 204 199 206 211 212 250 182 234 229 290 277 194 237 223 210 142 159 163
249 241 235 216 198 176 191 216 207 219 247 256 240 253 218 201 201 184 190 216 222 209 208 235 252 209 194 202 219 216 178 188 226 221 238 233 240 224 212 212 207 215 169 166 159
245 240 200 197 182 190 197 220 219 220 213 229 244 257 251 227 210 198 188 211 203 209 204 221 233 261 188 198 205 207 220 218 208 192 225 252 255 195 206 206 204 170 166 165 159
226 236 165 165 195 194 197 211 220 223 228 250 267 224 276 261 228 213 207 207 195 194 201 208 223 236 229 159 209 216 216 208 203 215 237 226 250 295 186 195 153 162 161 165 155
233 235 177 169 206 211 218 218 218 210 209 219 225 235 224 271 260 242 214 212 209 193 201 193 214 229 235 257 270 224 215 218 214 117 231 210 248 187 127 124 162 150 158 152 143
227 222 193 212 209 212 207 213 214 220 222 224 228 230 246 237 266 286 236 225 210 201 207 173 201 210 215 218 202 217 213 211 209 217 230 228 208 212 160 152 157 161 156 153 153
211 220 200 201 216 208 204 204 210 216 216 198 237 244 233 248 244 259 261 266 241 217 208 207 212 207 228 237 195 212 214 204 203 218 201 233 223 212 187 173 174 171 157 157 162
228 215 199 224 212 207 204 210 204 208 179 215 228 231 236 241 229 248 61 359 280 224 204 202 223 203 218 229 233 232 218 203 215 216 228 218 233 185 195 178 169 167 168 172 173
232 211 200 212 202 198 207 207 210 197 215 209 213 224 235 243 246 230 249 260 268 302 285 207 212 198 220 220 224 229 220 205 213 205 216 212 226 176 202 181 176 172 174 176 177